Skip Page Navigation
NASA JPL Caltech
NASA Logo - Jet Propulsion Laboratory + View the NASA Portal
+ Center for Near-Earth Object Studies
JPL Home Earth Solar System Stars & Galaxies Technology
JPL Solar System Dynamics
BODIES ORBITS EPHEMERIDES TOOLS PHYSICAL DATA DISCOVERY FAQ SITE MAP
JPL Small-Body Database Browser
Search: [ help ]  
344821 (2004 ER6)
Classification: Main-belt Asteroid          SPK-ID: 2344821
Ephemeris | Orbit Diagram | Orbital Elements | Mission Design | Physical Parameters | Discovery Circumstances | Close-Approach Data ]

[ show orbit diagram ]
Orbital Elements at Epoch 2459200.5 (2020-Dec-17.0) TDB
Reference: JPL 14 (heliocentric ecliptic J2000)
 Element Value Uncertainty (1-sigma)   Units 
e .06305250438154311 4.6204e-08  
a 2.332862800504261 1.5096e-08 au
q 2.185769958553927 1.1213e-07 au
i 6.510611787230641 4.7712e-06 deg
node 351.611196354365 4.8439e-05 deg
peri 182.9635440085781 6.7294e-05 deg
M 252.7148899256229 4.8654e-05 deg
tp 2459588.354803256160
(2022-Jan-08.85480326)
0.00017774 TDB
period 1301.464192705013
3.56
1.2632e-05
3.458e-08
d
yr
n .2766115287826414 2.6849e-09 deg/d
Q 2.479955642454595 1.6048e-08 au
  Orbit Determination Parameters
   # obs. used (total)      244  
   data-arc span      6164 days (16.88 yr)  
   first obs. used      2004-02-26  
   last obs. used      2021-01-11  
   planetary ephem.      DE431  
   SB-pert. ephem.      SB431-N16  
   condition code      0  
   norm. resid. RMS      .59893  
   source      ORB  
   producer      Otto Matic  
   solution date      2021-Feb-24 16:02:42  

Additional Information
 Earth MOID = 1.18989 au 
 Jupiter MOID = 2.48365 au 
 T_jup = 3.558 
[ show covariance matrix ]

Ephemeris | Orbit Diagram | Orbital Elements | Mission Design | Physical Parameters | Discovery Circumstances | Close-Approach Data ]

Physical Parameter Table
Parameter Symbol Value Units Sigma Reference Notes
absolute magnitude H 17.2   n/a MPO437461  

344821 (2004 ER6)          Discovered 2004-Mar-12 by NEAT at Palomar
Reference: 20121128/Numbers.arcLast Updated: 2012-12-03

[ show close-approach data ]
Ephemeris | Orbit Diagram | Orbital Elements | Mission Design | Physical Parameters | Discovery Circumstances | Close-Approach Data ]
ABOUT SSD CREDITS/AWARDS PRIVACY/COPYRIGHT GLOSSARY LINKS
FirstGov 2021-Feb-27 22:48 UT
(server date/time)  
NASA Home Page
Site Manager:   Ryan S. Park
Webmaster  Alan B. Chamberlin